Weather History for KFOK - June, 2013

Change the Weather History Date:

Thursday, June 13, 2013

  Actual Average Record
Temperature  
Mean Temperature 56 °F -  
Max Temperature 64 °F 70 °F 84 °F (2015)
Min Temperature 48 °F 54 °F 46 °F (2008)
Degree Days  
Heating Degree Days 9    
Growing Degree Days 6 (Base 50)    
Moisture  
Dew Point 54 °F    
Average Humidity 85    
Maximum Humidity 94    
Minimum Humidity 70    
Precipitation  
Precipitation 0.62 in - - ()
Sea Level Pressure  
Sea Level Pressure 29.68 in    
Wind  
Wind Speed 6 mph (East)    
Max Wind Speed 18 mph    
Max Gust Speed 30 mph    
Visibility 8 miles    
Events Rain    
Averages and records for this station are not official NWS values.
T = Trace of Precipitation, MM = Missing Value Source: NWS Daily Summary

Daily Weather History Graph

Daily Weather History Graph

Search for Another Location

Airport or City:

Trip Planner

Search our weather history database for the weather conditions in past years. The results will help you decide how hot, cold, wet, or windy it might be!

Date:

Astronomy

Jun. 13, 2013 Rise Set
Actual Time 5:18 AM EDT 8:23 PM EDT
Civil Twilight 4:44 AM EDT 8:56 PM EDT
Nautical Twilight 4:02 AM EDT 9:39 PM EDT
Astronomical Twilight 3:11 AM EDT 10:29 PM EDT
Moon 9:53 AM EDT (6/13) 11:26 PM EDT (6/13)
Length of Visible Light 16h 11m
Length of Day
15h 04m
Waxing Crescent, 21% of the Moon is Illuminated
Jun 13
Waxing Crescent
Jun 16
First Quarter
Jun 23
Full
Jun 30
Last Quarter
Jul 8
New

Hourly Weather History & Observations

Time (EDT) Temp. Dew Point Humidity Pressure Visibility Wind Dir Wind Speed Gust Speed Precip Events Conditions
12:53 AM 52.0 °F 48.0 °F 86% 29.84 in 10.0 mi Calm Calm - N/A   Clear
1:53 AM 51.1 °F 46.9 °F 86% 29.85 in 10.0 mi Calm Calm - N/A   Clear
2:53 AM 50.0 °F 46.0 °F 86% 29.84 in 10.0 mi Calm Calm - N/A   Clear
3:53 AM 48.9 °F 45.0 °F 86% 29.85 in 10.0 mi Calm Calm - N/A   Clear
4:53 AM 48.0 °F 46.0 °F 93% 29.83 in 10.0 mi Calm Calm - N/A   Clear
5:53 AM 53.1 °F 50.0 °F 89% 29.83 in 10.0 mi Calm Calm - N/A   Overcast
6:53 AM 57.0 °F 54.0 °F 89% 29.84 in 10.0 mi Calm Calm - N/A   Mostly Cloudy
7:53 AM 62.1 °F 55.9 °F 80% 29.81 in 10.0 mi ESE 4.6 mph - N/A   Mostly Cloudy
8:53 AM 64.0 °F 54.0 °F 70% 29.81 in 10.0 mi ESE 4.6 mph - N/A   Overcast
9:53 AM 63.0 °F 54.0 °F 72% 29.78 in 10.0 mi ESE 6.9 mph - 0.00 in Rain Light Rain
10:53 AM 63.0 °F 55.0 °F 75% 29.73 in 10.0 mi East 8.1 mph 16.1 mph 0.00 in Rain Light Rain
11:53 AM 61.0 °F 55.9 °F 83% 29.74 in 6.0 mi East 6.9 mph - 0.08 in Rain Light Rain
12:32 PM 60.8 °F 57.2 °F 88% 29.74 in 1.8 mi SE 9.2 mph - 0.12 in Rain Heavy Rain
12:46 PM 60.8 °F 57.2 °F 88% 29.75 in 3.0 mi SSE 11.5 mph 16.1 mph 0.18 in Rain Rain
12:53 PM 60.1 °F 57.0 °F 90% 29.71 in 2.5 mi ESE 12.7 mph 20.7 mph 0.21 in Rain Heavy Rain
1:05 PM 60.8 °F 57.2 °F 88% 29.73 in 4.0 mi SE 10.4 mph 20.7 mph 0.03 in Rain Rain
1:53 PM 63.0 °F 60.1 °F 90% 29.68 in 10.0 mi ESE 9.2 mph 24.2 mph 0.03 in   Scattered Clouds
2:53 PM 62.1 °F 55.9 °F 80% 29.69 in 10.0 mi ESE 11.5 mph 20.7 mph N/A   Overcast
3:04 PM 62.6 °F 57.2 °F 82% 29.69 in 10.0 mi SE 9.2 mph 20.7 mph N/A   Overcast
3:14 PM 62.6 °F 55.4 °F 77% 29.67 in 10.0 mi ESE 9.2 mph 23.0 mph N/A   Overcast
3:27 PM 62.6 °F 55.4 °F 77% 29.66 in 10.0 mi ESE 13.8 mph 20.7 mph N/A   Overcast
3:53 PM 62.1 °F 57.0 °F 84% 29.63 in 10.0 mi East 11.5 mph 21.9 mph 0.00 in   Overcast
4:53 PM 62.1 °F 57.0 °F 84% 29.61 in 10.0 mi ESE 10.4 mph 23.0 mph N/A   Overcast
5:53 PM 61.0 °F 57.0 °F 87% 29.58 in 10.0 mi East 12.7 mph 21.9 mph N/A   Overcast
6:53 PM 61.0 °F 55.9 °F 83% 29.55 in 9.0 mi East 12.7 mph 23.0 mph N/A   Overcast
7:06 PM 60.8 °F 55.4 °F 82% 29.55 in 6.0 mi East 12.7 mph 23.0 mph N/A   Overcast
7:53 PM 60.1 °F 55.9 °F 86% 29.55 in 9.0 mi East 15.0 mph 26.5 mph N/A   Overcast
8:53 PM 60.1 °F 55.9 °F 86% 29.53 in 10.0 mi ENE 13.8 mph 25.3 mph N/A   Overcast
9:33 PM 59.0 °F 55.4 °F 88% 29.53 in 1.8 mi East 16.1 mph 29.9 mph 0.23 in Rain Heavy Rain
9:41 PM 59.0 °F 55.4 °F 88% 29.53 in 3.0 mi East 16.1 mph 26.5 mph 0.26 in Rain Rain
9:50 PM 57.2 °F 55.4 °F 94% 29.52 in 6.0 mi East 13.8 mph 26.5 mph 0.27 in Rain Rain
9:53 PM 57.9 °F 55.9 °F 93% 29.52 in 6.0 mi ENE 15.0 mph 21.9 mph 0.28 in Rain Rain
10:53 PM 57.0 °F 54.0 °F 89% 29.49 in 10.0 mi ENE 18.4 mph 27.6 mph 0.01 in   Overcast
11:16 PM 57.2 °F 55.4 °F 94% 29.50 in 5.0 mi NE 16.1 mph 25.3 mph 0.00 in Rain Light Rain
11:53 PM 57.0 °F 54.0 °F 89% 29.50 in 3.0 mi ENE 18.4 mph 29.9 mph 0.01 in Rain Rain